Location: Unspecified
(29.9680°N, 0.0000°E)
Time: 03:25:24
(UTC+00:00)

Explorer 7 - Pass Details

Date: 26 June 2019
Orbit: 485 x 680 km, 50.3° (Epoch: 22 July)

Event Time Altitude Azimuth Distance (km) Brightness Sun altitude
Rises 14:03:55 0° 314° (NW) 2,971 10.8 62.2°
Reaches altitude 10° 14:06:14 10° 315° (NW) 2,078 10.2 61.7°
Maximum altitude 14:11:05 87° 44° (NE) 679 8.5 60.7°
Drops below altitude 10° 14:15:59 10° 134° (SE) 2,107 9.7 59.6°
Sets 14:18:21 0° 135° (SE) 3,016 10.4 59.1°
